Regional Weather Roundup
Issued by NWS

Home | Current Version | Previous Version | Graphics & Text | Print | Product List | Glossary On
Versions: 1 2 3 4 5 6 7 8 9 10 11 12 13 14 15 16 17 18 19 20 21 22 23 24 25 26 27 28 29 30 31 32 33 34 35 36 37 38 39 40 41 42 43 44 45 46 47 48 49 50
000
ASUS45 KBOI 040910
RWRID

IDAHO REGIONAL WEATHER ROUNDUP
NATIONAL WEATHER SERVICE BOISE ID
300 AM MDT FRI SEP 04 2015

NOTE: "FAIR" INDICATES FEW OR NO CLOUDS BELOW 12000 FEET
WITH NO SIGNIFICANT WEATHER AND/OR OBSTRUCTIONS TO VISIBILITY

IDZ012-014-041000-
SOUTHWEST IDAHO


CITY           SKY/WX    TMP DP  RH WIND       PRES   REMARKS
BOISE          CLOUDY    55  43  63 W6        29.85S
CALDWELL       CLOUDY    54  32  43 W9        29.88R
MOUNTAIN HOME  CLOUDY    59  41  50 NW13      29.84S
$$

IDZ016-017-041000-
SOUTHCENTRAL IDAHO


CITY           SKY/WX    TMP DP  RH WIND       PRES   REMARKS
BURLEY         PTCLDY    51  39  63 SW5       29.85S
JEROME         MOCLDY    54  38  54 SW8       29.86S
TWIN FALLS     PTCLDY    56  35  45 S14       29.87S
$$

IDZ019>023-041000-
SOUTHEAST IDAHO


CITY           SKY/WX    TMP DP  RH WIND       PRES   REMARKS
IDAHO FALLS    MOCLDY    55  43  63 SW14      29.86F
POCATELLO      CLEAR     54  40  59 SW12      29.87S
REXBURG        PTCLDY    56  44  64 W7        29.85F
$$

IDZ006-010-011-018-031-032-041000-
CENTRAL IDAHO MOUNTAINS


CITY           SKY/WX    TMP DP  RH WIND       PRES   REMARKS
MCCALL         PTCLDY    38  36  92 CALM      29.92F
HAILEY         CLOUDY    55  37  50 NW8       29.88F
STANLEY          N/A     44  41  89 SE3       30.01R
SALMON         CLOUDY    52  45  76 CALM      29.92R
CHALLIS        CLOUDY    55  39  54 NW10      29.91S
$$

IDZ002-004-006-007-026-041000-
NORTHERN IDAHO


CITY           SKY/WX    TMP DP  RH WIND       PRES   REMARKS
LEWISTON       CLEAR     47  39  74 SE6       29.94S
LOWELL           N/A     49  46  90 NW5       29.98S
COEUR D`ALENE  CLEAR     41  34  75 NE6       29.96S
MULLAN PASS    CLEAR     39  33  79 CALM      29.99S
$$


USA.gov is the U.S. government's official web portal to all federal, state and local government web resources and services.